Weather in Sireniki

Russia / Chukotka Autonomous Okrug     64°24′27″N   173°56′30″W
temp.,
°C
wind,
m/s
gust,
m/s
humid.,
%
clouds,
%
prec.,
mm/h
press.,
hPa
HPBL,
m
24 january, mon
mon2400:00−20ese3410099 0.3 1000139
03:00−18ese2398100 0.1 1001148
06:00−17ne2296100 0.4 100181
09:00−16n229689 1.1 1001124
12:00−16n2395100 1.3 100196
15:00−13n1294100 1.0 999100
18:00−14n1196100 1.6 99989
21:00−14nnw2397100 0.5 999142
25 january, tue
tue2500:00−16nw349894 0.7 998112
03:00−20nw4510071 0.1 99776
06:00−22nnw3410057 0.1 99773
09:00−23nnw349864 0.0 99974
12:00−22nnw349590 0.0 1000130
15:00−23nne3496100 0.0 1003104
18:00−23ne2395100 0.1 1006131
21:00−23ne2296100 0.1 100981
26 january, wed
wed2600:00−24nne3293100 0.1 1013170
03:00−25ne339198 0.0 1016135
06:00−27ne338844 0.0 101962
09:00−28ne338745 0.0 102381
12:00−26ene22868 0.0 102679
15:00−28ene32875 0.0 102828
18:00−28ene228830 0.0 103025
21:00−27e228911 0.0 103327
27 january, thu
thu2700:00−27e229321 0.0 103560
03:00−26ene229793 0.0 103670
06:00−26ene329520 0.0 103742
09:00−26ene219154 0.0 103835
12:00−24nne229214 0.0 103831
15:00−25nne328914 0.0 103837
18:00−25ne11817 0.0 103827
21:00−25e11775 0.0 103820
28 january, fri
fri2800:00−24ene227567 0.0 103825
03:00−24ese217639 0.0 103827
06:00−23ene2178100 0.0 103832
09:00−23ene2278100 0.0 103820
12:00−21ene117778 0.0 103730
15:00−22ene227790 0.0 103613
18:00−23ene227785 0.0 103710
21:00−22ene227565 0.0 103715